Showing default

KINEIS-1E, 60083

Orbit data source: Space-Track

KINEIS-1E, 60083 is a French payload satellite in SSO that was launched on Thu, 20 Jun 2024 UTC via an ELECTRON launch vehicle from the Rocket Lab Launch Complex (RLLC). Payload-class satellites include a variety of spacecraft equipped with specific instruments for various scientific and technological missions. These include communications satellites like Starlink; space stations such as the ISS; scientific satellites like the Hubble; Earth observation satellites from companies like Planet Labs, Umbra, and HawkEye 360; GPS; miniature CubeSats for education and research; and military/defense satellites.

Loading next visibility...
Identifier
60083, 2024-114E
Orbit
SSO
Country
Flag of FRFR
Related business
Manufacturer
KINEIS
Mission
Operational Commercial Communications
Bus & Motor
CUBESAT 16U, Unknown motor
Mass
28 kg wet, 28 kg dry
Launch date (UTC)
2024-06-20 (1 year ago)
Launch vehicle
ELECTRON
Launch site
Rocket Lab Launch Complex (RLLC)
Object type
Payload
Rocket body
Debris
Shape & HBR
Box + 2 Pan + 1 Ant, 1.0 m
Radar Cross Section
0.229 m², Medium (>0.1 m² and < 1m²)

Expand to show TLE details & history
Last TLE update: 6 hours ago

TLE from 6 hours ago
0 KINEIS-1E
1 60083U 24114E   25308.49417900  .00001254  00000-0  17266-3 0  9998
2 60083  98.0030 328.5215 0002378 103.6629 256.4847 14.80011270 74148
Epoch: 2025-11-04T11:51Z
TLE epoch observation values (Epoch: 2025-11-04T11:51:37.065Z)
Latitude
-0.00008°
Longitude
106.63668°
Altitude
632.697 km
Speed
7.542 km/s
True Right ascension
21h 54m 05s
True Declination
0° 00' 00"
Sunlit
Object was in daylight at epoch
Visualization orbit readout
Latitude
Unknown
Longitude
Unknown
Altitude
Unknown
Speed
Unknown
Apparent Right ascension
Unknown
Apparent Declination
Unknown
Sunlit
N/A
Visualization observer readout
Local Sidereal Time
14:07:35
Azimuth
Unknown
Elevation
Unknown
Doppler factor
Unknown
Orbital elements
Apogee altitude
628 km
Perigee altitude
624.668 km
Semi-major axis
7,004.471 km
Eccentricity
0.00024
Inclination
98.003°
RAAN
328.5215°
Arg. of periapsis
103.6629°
True anomaly
256.45821°
Mean anomaly
256.4847°
Eccentric anomaly
256.47145°
Mean motion
3.70237 °/min
Orbital period
97.23 mins
BSTAR
0.00017266
Loading maneuver chart data...
Computing Atmospheric mass density...
Loading historical data...
Loading historical data...
Loading historical data...
Loading historical data...
Loading historical data...
Loading historical data...
Loading historical data...

Documentation

Showing up to 5 results
|